Fairfield, NJ

6:14 PM EST on February 23, 2017 (GMT -0500)
Essex County

Weather History for KCDW - December, 2014

Change the Weather History Date:

Saturday, December 13, 2014

  Actual Average Record
Temperature  
Mean Temperature 37 °F -  
Max Temperature 41 °F 41 °F 68 °F (2015)
Min Temperature 33 °F 25 °F 4 °F (1988)
Degree Days  
Heating Degree Days 28    
Moisture  
Dew Point 26 °F    
Average Humidity 64    
Maximum Humidity 70    
Minimum Humidity 49    
Precipitation  
Precipitation 0.00 in - - ()
Sea Level Pressure  
Sea Level Pressure 29.98 in    
Wind  
Wind Speed 7 mph (NW)    
Max Wind Speed 15 mph    
Max Gust Speed 26 mph    
Visibility 10 miles    
Events      
Averages and records for this station are not official NWS values.
T = Trace of Precipitation, MM = Missing Value Source: NWS Daily Summary

Daily Weather History Graph

Daily Weather History Graph

Search for Another Location

Airport or City:

Trip Planner

Search our weather history database for the weather conditions in past years. The results will help you decide how hot, cold, wet, or windy it might be!

Date:

Astronomy

Dec. 13, 2014 Rise Set
Actual Time 7:13 AM EST 4:29 PM EST
Civil Twilight 6:42 AM EST 5:00 PM EST
Nautical Twilight 6:07 AM EST 5:35 PM EST
Astronomical Twilight 5:34 AM EST 6:08 PM EST
Moon 11:31 PM EST (12/13) 11:33 AM EST (12/13)
Length of Visible Light 10h 18m
Length of Day
9h 16m
Waning Gibbous, 58% of the Moon is Illuminated
Dec 13
Waning Gibbous
Dec 14
Last Quarter
Dec 21
New
Dec 28
First Quarter
Jan 4
Full

Hourly Weather History & Observations

Time (EST) Temp. Windchill Dew Point Humidity Pressure Visibility Wind Dir Wind Speed Gust Speed Precip Events Conditions
12:53 AM 34.0 °F 29.8 °F 25.0 °F 70% 30.01 in 10.0 mi Variable 4.6 mph - N/A   Overcast
1:53 AM 34.0 °F - 25.0 °F 70% 30.00 in 10.0 mi Calm Calm - N/A   Overcast
2:53 AM 35.1 °F 32.2 °F 26.1 °F 70% 30.01 in 10.0 mi Variable 3.5 mph - N/A   Overcast
3:53 AM 35.1 °F 30.1 °F 26.1 °F 70% 30.01 in 10.0 mi North 5.8 mph - N/A   Overcast
4:53 AM 35.1 °F - 25.0 °F 67% 30.00 in 10.0 mi North - - N/A   Overcast
5:41 AM 34.0 °F - 24.1 °F 67% 29.98 in 10.0 mi Calm Calm - N/A   Mostly Cloudy
5:53 AM 34.0 °F 28.8 °F 24.1 °F 67% 30.01 in 10.0 mi Variable 5.8 mph - N/A   Mostly Cloudy
6:53 AM 33.1 °F 28.7 °F 23.0 °F 66% 30.02 in 10.0 mi NNW 4.6 mph - N/A   Clear
7:53 AM 34.0 °F 28.8 °F 23.0 °F 64% 30.03 in 10.0 mi NW 5.8 mph - N/A   Partly Cloudy
8:53 AM 36.0 °F 27.5 °F 23.0 °F 59% 30.03 in 10.0 mi NW 12.7 mph 17.3 mph N/A   Scattered Clouds
9:53 AM 37.9 °F 29.6 °F 21.0 °F 51% 30.02 in 10.0 mi NW 13.8 mph 26.5 mph N/A   Clear
10:53 AM 39.9 °F 32.5 °F 21.9 °F 49% 30.00 in 10.0 mi NNW 12.7 mph 20.7 mph N/A   Clear
11:53 AM 41.0 °F 33.1 °F 24.1 °F 51% 29.98 in 10.0 mi NNW 15.0 mph 26.5 mph N/A   Clear
12:53 PM 41.0 °F 33.5 °F 25.0 °F 53% 29.96 in 10.0 mi NW 13.8 mph 25.3 mph N/A   Partly Cloudy
1:53 PM 39.9 °F 32.5 °F 26.1 °F 58% 29.96 in 10.0 mi NNW 12.7 mph 25.3 mph N/A   Scattered Clouds
2:53 PM 39.9 °F 32.1 °F 27.0 °F 60% 29.95 in 10.0 mi NW 13.8 mph 20.7 mph N/A   Mostly Cloudy
3:53 PM 39.0 °F 32.3 °F 27.0 °F 62% 29.96 in 10.0 mi NNW 10.4 mph 19.6 mph N/A   Overcast
4:02 PM 39.0 °F 32.3 °F 27.0 °F 62% 29.93 in 10.0 mi NNW 10.4 mph 20.7 mph N/A   Overcast
4:53 PM 39.0 °F 32.3 °F 28.0 °F 65% 29.95 in 10.0 mi NW 10.4 mph - N/A   Overcast
5:53 PM 39.0 °F 34.8 °F 28.0 °F 65% 29.96 in 10.0 mi Variable 5.8 mph - N/A   Overcast
6:53 PM 37.9 °F 32.1 °F 28.0 °F 68% 29.96 in 10.0 mi NNW 8.1 mph - N/A   Overcast
7:53 PM 37.9 °F 30.5 °F 27.0 °F 65% 29.96 in 10.0 mi NW 11.5 mph 18.4 mph N/A   Overcast
8:53 PM 37.9 °F 32.7 °F 28.0 °F 68% 29.95 in 10.0 mi NW 6.9 mph - N/A   Overcast
9:19 PM 37.9 °F 31.5 °F 28.0 °F 68% 29.92 in 10.0 mi NNW 9.2 mph - N/A   Scattered Clouds
9:53 PM 37.9 °F 32.1 °F 28.0 °F 68% 29.94 in 10.0 mi NW 8.1 mph 19.6 mph N/A   Partly Cloudy
10:53 PM 37.9 °F 34.4 °F 28.9 °F 70% 29.94 in 10.0 mi Variable 4.6 mph - N/A   Partly Cloudy
11:53 PM 37.9 °F 32.7 °F 28.9 °F 70% 29.92 in 10.0 mi NNW 6.9 mph - N/A   Partly Cloudy